This is the latest recevied weather packets stored in our database for station/object KC0UFP. If no packets are shown the sender has not sent any weather packets the latest 10 day(s).
| Time | Temp. | Humidity | Pressure | Rain* | Wind** | Luminosity | Snow |
|---|---|---|---|---|---|---|---|
| 1777937903 | 25° C | 43% | 1007.9 hPa | 0 mm | - | 127 W/m² | - |
| 1777937599 | 25.56° C | 43% | 1007.8 hPa | 0 mm | - | 140 W/m² | - |
| 1777937296 | 25.56° C | 43% | 1007.8 hPa | 0 mm | - | 153 W/m² | - |
| 1777936993 | 25.56° C | 43% | 1007.9 hPa | 0 mm | - | 168 W/m² | - |
| 1777936690 | 25.56° C | 42% | 1007.9 hPa | 0 mm | - | 186 W/m² | - |
| 1777936386 | 25.56° C | 43% | 1008 hPa | 0 mm | - | 198 W/m² | - |
| 1777936082 | 25.56° C | 42% | 1007.9 hPa | 0 mm | - | 216 W/m² | - |
| 1777935781 | 25.56° C | 41% | 1008 hPa | 0 mm | - | 233 W/m² | - |
| 1777935479 | 26.11° C | 41% | 1008 hPa | 0 mm | - | 250 W/m² | - |
| 1777935175 | 26.11° C | 41% | 1008.2 hPa | 0 mm | - | 273 W/m² | - |
| 1777934872 | 26.11° C | 41% | 1008.1 hPa | 0 mm | - | 300 W/m² | - |
| 1777934570 | 26.11° C | 41% | 1008 hPa | 0 mm | - | 320 W/m² | - |
| 1777934266 | 26.11° C | 41% | 1008.1 hPa | 0 mm | - | 341 W/m² | - |
| 1777933961 | 26.11° C | 41% | 1007.9 hPa | 0 mm | - | 354 W/m² | - |
| 1777933659 | 26.11° C | 41% | 1008.1 hPa | 0 mm | - | 379 W/m² | - |
| 1777933355 | 26.11° C | 41% | 1008.2 hPa | 0 mm | - | 407 W/m² | - |
| 1777933053 | 26.11° C | 40% | 1008 hPa | 0 mm | - | 420 W/m² | - |
| 1777932750 | 26.11° C | 41% | 1008.1 hPa | 0 mm | - | 439 W/m² | - |
| 1777932446 | 26.11° C | 40% | 1008.2 hPa | 0 mm | - | 454 W/m² | - |
| 1777932144 | 26.11° C | 40% | 1008.2 hPa | 0 mm | - | 475 W/m² | - |
| 1777931841 | 26.11° C | 39% | 1008 hPa | 0 mm | - | 222 W/m² | - |
| 1777931538 | 26.67° C | 40% | 1008.2 hPa | 0 mm | - | 523 W/m² | - |
| 1777931233 | 26.11° C | 40% | 1008.2 hPa | 0 mm | - | 552 W/m² | - |
| 1777930930 | 26.67° C | 40% | 1008.3 hPa | 0 mm | - | 577 W/m² | - |
| 1777930627 | 26.11° C | 40% | 1008.1 hPa | 0 mm | - | 584 W/m² | - |
* Rain latest hour (hover to see other rain measurements)
** Current wind speed in m/s (hover to see current wind gust speed)